User: anonymous   Login
Location: Vancouver
(49.2500°N, 123.1330°W)
Time: 05:09:05
(UTC-08:00)
Language:

Oscar 11 - Orbit

View from above orbital plane
View from above orbital plane
View from above satellite
View from above satellite

Ground track
Ground track

The orbit data is extracted from the following two-line orbital elements,

1 14781U 84021B   14330.17063505  .00000952  00000-0  12667-3 0  6734
2 14781 097.8321 026.9773 0008738 022.8733 337.2867 14.81933461651950
Epoch (UTC): 26 November 2014 04:05:42
Eccentricity: 0.0008738
inclination: 97.8321°
perigee height: 617 km
apogee height: 629 km
right ascension of ascending node: 26.9773°
argument of perigee: 22.8733°
revolutions per day: 14.81933461
mean anomaly at epoch: 337.2867°
orbit number at epoch: 65195

The dashed part of the orbit path shows where the satellite is in the earth's shadow,  

DLR